KX4BE Weather Reports


Display with metric or nautical units.
time (UTC)temp
F
wind
direction
speed
MPH
gust
MPH
rain 1hr
in
rain 24hr
in
rain mn
in
humidity
%
barometer
mb
20260510075407 60 200 1.0 3.0 0.00 0.00 0.00 93 1016.2
20260510074845 60 194 2.0 3.0 0.00 0.00 0.00 93 1016.2
20260510074345 60 222 1.0 3.0 0.00 0.00 0.00 92 1016.2
20260510073842 60 205 0.0 2.0 0.00 0.00 0.00 92 1016.2
20260510073343 61 205 1.0 2.0 0.00 0.00 0.00 92 1016.1
20260510072833 61 205 1.0 2.0 0.00 0.00 0.00 91 1016.1
20260510072333 61 205 0.0 2.0 0.00 0.00 0.00 91 1016.1
20260510071851 61 205 0.0 5.0 0.00 0.00 0.00 91 1016.1
20260510071330 61 205 1.0 5.0 0.00 0.00 0.00 91 1016.0
20260510070832 61 204 1.0 3.0 0.00 0.00 0.00 91 1016.0
20260510070352 61 203 1.0 3.0 0.00 0.00 0.00 90 1016.0
20260510065845 61 223 1.0 2.0 0.00 0.00 0.00 90 1016.1
20260510065343 61 223 1.0 2.0 0.00 0.00 0.00 90 1016.1
20260510064842 61 220 1.0 2.0 0.00 0.00 0.00 90 1016.0
20260510064341 61 221 0.0 0.0 0.00 0.00 0.00 90 1016.0
20260510063858 61 221 0.0 0.0 0.00 0.00 0.00 90 1015.9
20260510063339 61 221 0.0 0.0 0.00 0.00 0.00 90 1016.0
20260510062853 61 221 0.0 1.0 0.00 0.00 0.00 90 1016.1
20260510062332 61 221 0.0 2.0 0.00 0.00 0.00 89 1016.1
20260510061910 61 221 1.0 2.0 0.00 0.00 0.00 89 1016.1
20260510061349 61 221 0.0 2.0 0.00 0.00 0.00 89 1016.1
20260510060846 61 221 0.0 3.0 0.00 0.00 0.00 89 1016.3
20260510060348 61 211 0.0 1.0 0.00 0.00 0.00 89 1016.2
20260510055843 61 211 0.0 2.0 0.00 0.00 0.00 89 1016.1
20260510055343 61 211 0.0 2.0 0.00 0.00 0.00 89 1016.2
20260510054840 61 211 0.0 2.0 0.00 0.00 0.00 88 1016.3
20260510054340 61 211 0.0 2.0 0.00 0.00 0.00 88 1016.2
20260510053839 61 211 0.0 1.0 0.00 0.00 0.00 87 1016.3
20260510053343 62 211 0.0 1.0 0.00 0.00 0.00 87 1016.3
20260510052838 62 211 0.0 2.0 0.00 0.00 0.00 87 1016.3
20260510052338 62 211 0.0 2.0 0.00 0.00 0.00 87 1016.4
20260510051835 62 199 0.0 1.0 0.00 0.00 0.00 87 1016.4
20260510050843 62 200 0.0 3.0 0.00 0.00 0.00 87 1016.4
20260510050344 62 200 1.0 3.0 0.00 0.00 0.00 87 1016.4
20260510045839 62 205 1.0 2.0 0.00 0.00 0.00 87 1016.6
20260510045339 62 215 0.0 1.0 0.00 0.00 0.00 86 1016.6
20260510044836 62 215 0.0 1.0 0.00 0.00 0.00 86 1016.5
20260510044356 62 215 0.0 2.0 0.00 0.00 0.00 85 1016.5
20260510043849 62 215 1.0 2.0 0.00 0.00 0.00 85 1016.6
20260510043350 62 215 1.0 2.0 0.00 0.00 0.00 85 1016.7
20260510042903 63 215 0.0 2.0 0.00 0.00 0.00 85 1016.6
20260510042402 63 215 1.0 2.0 0.00 0.00 0.00 85 1016.6
20260510041839 63 215 1.0 1.0 0.00 0.00 0.00 85 1016.6
20260510041339 63 215 0.0 2.0 0.00 0.00 0.00 85 1016.6
20260510040839 63 215 0.0 2.0 0.00 0.00 0.00 85 1016.6
20260510040340 63 215 0.0 2.0 0.00 0.00 0.00 85 1016.4
20260510035833 63 215 0.0 0.0 0.00 0.00 0.00 85 1016.5
20260510035334 63 215 0.0 2.0 0.00 0.00 0.00 85 1016.4
20260510034850 63 215 0.0 2.0 0.00 0.00 0.00 85 1016.4
20260510034349 63 215 1.0 2.0 0.00 0.00 0.00 84 1016.4
20260510033907 64 215 1.0 2.0 0.00 0.00 0.00 84 1016.3
20260510033345 64 215 1.0 2.0 0.00 0.00 0.00 83 1016.4
20260510032840 64 215 1.0 2.0 0.00 0.00 0.00 83 1016.4
20260510032400 64 215 0.0 2.0 0.00 0.00 0.00 83 1016.4
20260510031836 64 215 0.0 2.0 0.00 0.00 0.00 82 1016.4
20260510031337 64 208 0.0 3.0 0.00 0.00 0.00 82 1016.3
20260510030835 64 208 0.0 2.0 0.00 0.00 0.00 82 1016.3
20260510030416 64 208 0.0 1.0 0.00 0.00 0.00 82 1016.3
20260510025846 64 208 0.0 2.0 0.00 0.00 0.00 82 1016.3
20260510025346 65 208 0.0 2.0 0.00 0.00 0.00 81 1016.2
20260510024844 65 208 0.0 1.0 0.00 0.00 0.00 81 1016.1
20260510024345 65 208 0.0 2.0 0.00 0.00 0.00 81 1016.0
20260510023843 65 208 0.0 2.0 0.00 0.00 0.00 81 1016.0
20260510023347 65 208 0.0 1.0 0.00 0.00 0.00 80 1015.9
20260510022859 65 208 0.0 3.0 0.00 0.00 0.00 80 1015.9
20260510022338 66 208 1.0 3.0 0.00 0.00 0.00 80 1015.9
20260510021835 66 208 2.0 3.0 0.00 0.00 0.00 79 1016.0
20260510021354 66 209 0.0 2.0 0.00 0.00 0.00 79 1015.8
20260510020829 66 209 0.0 2.0 0.00 0.00 0.00 79 1015.7
20260510020350 66 209 0.0 3.0 0.00 0.00 0.00 79 1015.6
20260510015844 66 208 1.0 3.0 0.00 0.00 0.00 79 1015.6
20260510015342 66 208 1.0 2.0 0.00 0.00 0.00 79 1015.5
20260510014841 66 173 0.0 0.0 0.00 0.00 0.00 79 1015.5
20260510014340 66 173 0.0 1.0 0.00 0.00 0.00 79 1015.4
20260510013836 66 173 0.0 1.0 0.00 0.00 0.00 79 1015.3
20260510013357 66 173 0.0 2.0 0.00 0.00 0.00 78 1015.2
20260510012831 67 173 1.0 2.0 0.00 0.00 0.00 77 1015.2
20260510012332 67 173 0.0 1.0 0.00 0.00 0.00 77 1015.2
20260510011848 67 173 0.0 1.0 0.00 0.00 0.00 76 1015.0
20260510011407 67 173 0.0 2.0 0.00 0.00 0.00 76 1014.8
20260510010906 68 173 0.0 2.0 0.00 0.00 0.00 76 1014.6
20260510010346 68 173 1.0 2.0 0.00 0.00 0.00 76 1014.5
20260510005841 68 167 0.0 2.0 0.00 0.00 0.00 75 1014.5
20260510005401 68 167 0.0 3.0 0.00 0.00 0.00 75 1014.4
20260510004840 68 167 1.0 2.0 0.00 0.00 0.00 75 1014.4
20260510004341 69 191 0.0 2.0 0.00 0.00 0.00 75 1014.3
20260510003837 69 190 0.0 1.0 0.00 0.00 0.00 74 1014.3
20260510003338 69 190 0.0 1.0 0.00 0.00 0.00 74 1014.2
20260510002833 69 190 0.0 1.0 0.00 0.00 0.00 73 1014.2
20260510002334 70 190 0.0 2.0 0.00 0.00 0.00 73 1014.1
20260510001851 70 190 1.0 2.0 0.00 0.00 0.00 72 1014.1
20260510001346 70 190 1.0 3.0 0.00 0.00 0.00 72 1014.0
20260510000904 70 188 0.0 3.0 0.00 0.00 0.00 72 1013.8
20260510000344 71 216 0.0 2.0 0.00 0.00 0.00 71 1013.8
20260509235838 71 216 0.0 2.0 0.00 0.00 0.00 71 1014.0
20260509235338 71 217 1.0 3.0 0.00 0.00 0.00 70 1014.1
20260509234837 71 217 1.0 3.0 0.00 0.00 0.00 70 1014.1
20260509234336 72 225 1.0 2.0 0.00 0.00 0.00 69 1014.0
20260509233834 72 225 0.0 3.0 0.00 0.00 0.00 70 1013.9
20260509233338 72 225 1.0 3.0 0.00 0.00 0.00 69 1013.8
20260509232854 72 225 0.0 2.0 0.00 0.00 0.00 69 1013.8
20260509232408 73 225 0.0 2.0 0.00 0.00 0.00 68 1013.7
20260509231844 73 225 0.0 2.0 0.00 0.00 0.00 68 1013.7
20260509231343 73 225 1.0 2.0 0.00 0.00 0.00 68 1013.5
20260509230839 73 82 1.0 2.0 0.00 0.00 0.00 68 1013.5
20260509230340 73 90 1.0 3.0 0.00 0.00 0.00 68 1013.5
20260509225835 73 184 1.0 3.0 0.00 0.00 0.00 68 1013.5
20260509225335 73 134 1.0 4.0 0.00 0.00 0.00 67 1013.5
20260509224335 74 38 0.0 3.0 0.00 0.00 0.00 68 1013.5
20260509223855 74 171 1.0 6.0 0.00 0.00 0.00 67 1013.4
20260509223333 74 274 1.0 6.0 0.00 0.00 0.00 67 1013.4
20260509222848 75 154 2.0 6.0 0.00 0.00 0.00 67 1013.3
20260509222348 75 317 2.0 5.0 0.00 0.00 0.00 68 1013.2
20260509221908 75 267 1.0 5.0 0.00 0.00 0.00 68 1013.1
20260509221346 75 115 1.0 3.0 0.00 0.00 0.00 70 1013.0
20260509220846 75 188 1.0 4.0 0.00 0.00 0.00 69 1013.0
20260509220345 76 198 0.0 3.0 0.00 0.00 0.00 69 1012.9
20260509215856 76 101 2.0 4.0 0.00 0.00 0.00 68 1012.9
20260509215355 76 196 2.0 7.0 0.00 0.00 0.00 68 1012.9
20260509214837 76 200 3.0 7.0 0.00 0.00 0.00 68 1012.8
20260509214357 76 250 1.0 7.0 0.00 0.00 0.00 68 1012.9
20260509213833 76 206 3.0 7.0 0.00 0.00 0.00 68 1012.9
20260509213334 76 202 2.0 5.0 0.00 0.00 0.00 68 1012.8
20260509212846 77 171 1.0 7.0 0.00 0.00 0.00 67 1012.9
20260509212345 77 165 4.0 7.0 0.00 0.00 0.00 67 1012.9
20260509211843 77 154 2.0 6.0 0.00 0.00 0.00 66 1012.9
20260509211342 77 162 1.0 6.0 0.00 0.00 0.00 66 1012.9
20260509210841 77 49 3.0 6.0 0.00 0.00 0.00 65 1012.8
20260509210342 77 117 1.0 7.0 0.00 0.00 0.00 65 1012.9
20260509205837 78 188 2.0 9.0 0.00 0.00 0.00 64 1012.9
20260509205334 78 148 1.0 9.0 0.00 0.00 0.00 63 1012.9
20260509204851 78 202 3.0 7.0 0.00 0.00 0.00 63 1012.9
20260509204330 78 232 3.0 8.0 0.00 0.00 0.00 63 1012.7
20260509203848 77 194 2.0 8.0 0.00 0.00 0.00 61 1012.7
20260509203408 77 182 3.0 7.0 0.00 0.00 0.00 63 1012.6
20260509202842 77 113 1.0 7.0 0.00 0.00 0.00 63 1012.5
20260509202402 77 188 4.0 8.0 0.00 0.00 0.00 62 1012.5
20260509201836 77 269 2.0 8.0 0.00 0.00 0.00 64 1012.5
20260509201340 77 212 2.0 7.0 0.00 0.00 0.00 64 1012.5
20260509200838 77 207 3.0 8.0 0.00 0.00 0.00 62 1012.8
20260509200338 77 140 1.0 8.0 0.00 0.00 0.00 62 1012.6
20260509195830 77 202 2.0 4.0 0.00 0.00 0.00 61 1012.8
20260509195349 78 225 1.0 6.0 0.00 0.00 0.00 62 1013.0
20260509194843 78 170 2.0 9.0 0.00 0.00 0.00 62 1013.1
20260509194402 77 206 4.0 9.0 0.00 0.00 0.00 60 1013.2
20260509193411 77 215 2.0 5.0 0.00 0.00 0.00 61 1013.3
20260509192906 77 305 2.0 8.0 0.00 0.00 0.00 61 1013.4
20260509192345 77 192 2.0 9.0 0.00 0.00 0.00 62 1013.3
20260509191844 77 209 3.0 7.0 0.00 0.00 0.00 61 1013.2
20260509191340 77 197 3.0 7.0 0.00 0.00 0.00 61 1013.4
20260509190857 76 213 2.0 9.0 0.00 0.00 0.00 62 1013.3
20260509190337 76 181 2.0 9.0 0.00 0.00 0.00 63 1013.5
20260509185833 76 194 1.0 10.0 0.00 0.00 0.00 64 1013.6
20260509185353 76 194 4.0 10.0 0.00 0.00 0.00 63 1013.5
20260509184850 76 173 2.0 9.0 0.00 0.00 0.00 64 1013.8
20260509184349 76 270 4.0 10.0 0.00 0.00 0.00 62 1013.8
20260509183845 76 174 3.0 11.0 0.00 0.00 0.00 62 1013.7
20260509183348 76 217 3.0 8.0 0.00 0.00 0.00 62 1013.7
20260509182840 76 206 2.0 12.0 0.00 0.00 0.00 62 1013.7
20260509182359 76 205 5.0 12.0 0.00 0.00 0.00 62 1014.0
20260509181835 75 188 2.0 4.0 0.00 0.00 0.00 63 1014.0
20260509181335 76 67 2.0 5.0 0.00 0.00 0.00 65 1013.8
20260509180832 76 266 1.0 5.0 0.00 0.00 0.00 64 1013.7
20260509180413 77 10 1.0 4.0 0.00 0.00 0.00 67 1013.7
20260509175906 77 227 1.0 7.0 0.00 0.00 0.00 66 1013.7
20260509175345 76 133 2.0 6.0 0.00 0.00 0.00 64 1013.4
20260509174842 76 191 1.0 4.0 0.00 0.00 0.00 64 1013.5
20260509174341 75 193 1.0 4.0 0.00 0.00 0.00 64 1013.5
20260509173839 75 9 1.0 9.0 0.00 0.00 0.00 68 1013.6
20260509173339 75 5 2.0 9.0 0.00 0.00 0.00 67 1013.7
20260509172834 75 225 4.0 9.0 0.00 0.00 0.00 66 1013.9
20260509172353 74 145 2.0 6.0 0.00 0.00 0.00 68 1014.1
20260509171850 74 164 1.0 7.0 0.00 0.00 0.00 67 1014.2
20260509171349 75 153 4.0 7.0 0.00 0.00 0.00 66 1014.1
20260509170847 74 206 2.0 5.0 0.00 0.00 0.00 68 1014.0
20260509170407 74 224 2.0 5.0 0.00 0.00 0.00 66 1014.0
20260509165839 74 217 2.0 5.0 0.00 0.00 0.00 66 1014.2
20260509165338 74 193 2.0 5.0 0.00 0.00 0.00 66 1014.2
20260509164856 74 200 3.0 10.0 0.00 0.00 0.00 67 1014.2
20260509164339 74 252 6.0 10.0 0.00 0.00 0.00 67 1014.2
20260509163834 73 159 1.0 8.0 0.00 0.00 0.00 72 1014.2
20260509163334 73 185 2.0 8.0 0.00 0.00 0.00 68 1014.3
20260509162848 72 192 1.0 3.0 0.00 0.00 0.00 70 1014.3
20260509162349 72 221 1.0 7.0 0.00 0.00 0.00 71 1014.4
20260509161845 71 257 1.0 7.0 0.00 0.00 0.00 74 1014.3
20260509161345 71 220 4.0 8.0 0.00 0.00 0.00 71 1014.4
20260509160843 70 234 3.0 8.0 0.00 0.00 0.00 72 1014.5
20260509160344 70 231 2.0 6.0 0.00 0.00 0.00 71 1014.6
20260509155839 70 230 2.0 4.0 0.00 0.00 0.00 74 1014.5
20260509155357 70 53 2.0 4.0 0.00 0.00 0.00 74 1014.7
20260509154833 69 303 1.0 4.0 0.00 0.00 0.00 75 1014.7
20260509154334 69 142 1.0 9.0 0.00 0.00 0.00 76 1014.7
20260509153833 69 188 3.0 9.0 0.00 0.00 0.00 77 1014.7
20260509153414 69 229 3.0 7.0 0.00 0.00 0.00 76 1014.8
20260509152847 68 214 1.0 4.0 0.00 0.00 0.00 77 1014.8
20260509152347 67 217 2.0 7.0 0.00 0.00 0.00 78 1014.8
20260509151847 67 214 1.0 7.0 0.00 0.00 0.00 80 1014.8
20260509151346 67 273 3.0 7.0 0.00 0.00 0.00 78 1014.9
20260509150842 66 190 3.0 7.0 0.00 0.00 0.00 79 1014.7
20260509150343 66 246 3.0 7.0 0.00 0.00 0.00 78 1014.8
20260509145833 66 295 2.0 7.0 0.00 0.00 0.00 79 1014.7
20260509145333 66 222 2.0 7.0 0.00 0.00 0.00 80 1014.5
20260509144850 66 140 1.0 5.0 0.00 0.00 0.00 81 1014.6
20260509144349 66 199 2.0 7.0 0.00 0.00 0.00 78 1014.7
20260509143848 66 186 2.0 9.0 0.00 0.00 0.00 79 1014.9
20260509143350 66 184 3.0 8.0 0.00 0.00 0.00 79 1014.8
20260509142904 66 214 2.0 7.0 0.00 0.00 0.00 80 1014.8
20260509142343 65 204 2.0 8.0 0.00 0.00 0.00 80 1014.6
20260509141902 65 175 1.0 6.0 0.00 0.00 0.00 79 1014.5
20260509141359 65 158 1.0 5.0 0.00 0.00 0.00 82 1014.5
20260509140835 65 217 1.0 5.0 0.00 0.00 0.00 82 1014.1
20260509140337 65 273 1.0 5.0 0.00 0.00 0.00 82 1014.1
20260509135850 64 221 2.0 5.0 0.00 0.00 0.00 81 1014.1
20260509135333 64 133 0.0 6.0 0.00 0.00 0.00 83 1014.2
20260509134850 64 200 2.0 6.0 0.00 0.00 0.00 82 1014.2
20260509134348 64 214 1.0 5.0 0.00 0.00 0.00 83 1014.2
20260509133843 63 178 1.0 6.0 0.00 0.00 0.00 85 1014.1
20260509133344 63 165 1.0 4.0 0.00 0.00 0.00 85 1014.2
20260509132835 62 234 2.0 4.0 0.00 0.00 0.00 85 1014.2
20260509132335 62 209 1.0 4.0 0.00 0.00 0.00 84 1014.2
20260509131832 62 220 1.0 5.0 0.00 0.00 0.00 84 1014.2
20260509131332 62 198 3.0 5.0 0.00 0.00 0.00 85 1014.2
20260509130849 61 177 3.0 5.0 0.00 0.00 0.00 84 1014.3
20260509130350 61 173 2.0 4.0 0.00 0.00 0.00 86 1014.2
20260509125844 60 118 2.0 4.0 0.00 0.00 0.00 86 1014.0
20260509125344 60 171 1.0 4.0 0.00 0.00 0.00 87 1014.4
20260509124843 60 221 1.0 5.0 0.00 0.00 0.00 87 1014.4
20260509124403 60 221 0.0 3.0 0.00 0.00 0.00 88 1014.5
20260509123839 59 221 0.0 2.0 0.00 0.00 0.00 87 1014.5
20260509123358 59 221 0.0 2.0 0.00 0.00 0.00 88 1014.4
20260509122837 59 221 0.0 2.0 0.00 0.00 0.00 89 1014.4
20260509122337 58 218 0.0 1.0 0.00 0.00 0.00 90 1014.3
20260509121833 58 218 0.0 2.0 0.00 0.00 0.00 90 1014.2
20260509121352 57 218 1.0 2.0 0.00 0.00 0.00 90 1014.3
20260509120847 57 218 1.0 2.0 0.00 0.00 0.00 90 1014.3
20260509120347 57 218 0.0 3.0 0.00 0.00 0.00 90 1014.2
20260509115857 56 126 0.0 3.0 0.00 0.00 0.00 91 1014.1
20260509115336 56 126 2.0 3.0 0.00 0.00 0.00 91 1014.0
20260509114834 56 126 1.0 2.0 0.00 0.00 0.00 91 1014.2
20260509114335 56 126 0.0 2.0 0.00 0.00 0.00 91 1014.1
20260509113834 56 126 0.0 1.0 0.00 0.00 0.00 92 1014.1
20260509113335 55 126 0.0 1.0 0.00 0.00 0.00 92 1014.1
20260509112850 55 126 0.0 1.0 0.00 0.00 0.00 92 1014.1
20260509112349 55 126 0.0 1.0 0.00 0.00 0.00 92 1014.1
20260509111848 55 126 0.0 0.0 0.00 0.00 0.00 92 1014.0
20260509111408 55 126 0.0 3.0 0.00 0.00 0.00 92 1013.8
20260509110844 55 126 1.0 3.0 0.00 0.00 0.00 92 1013.8
20260509110349 55 76 1.0 2.0 0.00 0.00 0.00 92 1013.9
20260509105841 55 76 0.0 2.0 0.00 0.00 0.00 92 1014.0
20260509105339 55 76 0.0 2.0 0.00 0.00 0.00 92 1013.9
20260509104838 54 76 0.0 2.0 0.00 0.00 0.00 92 1013.8
20260509104338 54 76 1.0 3.0 0.00 0.00 0.00 92 1013.8
20260509103837 54 76 1.0 3.0 0.00 0.00 0.00 93 1013.8
20260509103338 54 77 0.0 0.0 0.00 0.00 0.00 93 1013.8
20260509102833 54 78 0.0 0.0 0.00 0.00 0.00 93 1013.7
20260509102354 54 77 0.0 0.0 0.00 0.00 0.00 93 1013.6
20260509101829 54 77 0.0 0.0 0.00 0.00 0.00 93 1013.6
20260509101330 54 78 0.0 0.0 0.00 0.00 0.00 93 1013.6
20260509100848 54 78 0.0 0.0 0.00 0.00 0.00 93 1013.8
20260509100409 54 77 0.0 1.0 0.00 0.00 0.00 93 1013.8
20260509095843 54 77 0.0 1.0 0.00 0.00 0.00 93 1013.8
20260509095344 54 77 0.0 1.0 0.00 0.00 0.00 93 1013.5
20260509094901 54 77 0.0 1.0 0.00 0.00 0.00 92 1013.5
20260509094339 54 77 0.0 1.0 0.00 0.00 0.00 92 1013.7
20260509093841 54 77 0.0 2.0 0.00 0.00 0.00 91 1013.6
20260509093343 54 77 1.0 3.0 0.00 0.00 0.00 91 1013.4
20260509092836 54 78 1.0 4.0 0.00 0.00 0.00 90 1013.3
20260509091904 54 155 0.0 1.0 0.00 0.00 0.00 91 1013.7
20260509091339 54 155 0.0 1.0 0.00 0.00 0.00 91 1013.8
20260509090855 54 155 0.0 2.0 0.00 0.00 0.00 91 1013.7
20260509090355 54 155 1.0 4.0 0.00 0.00 0.00 91 1013.7
20260509085848 54 127 2.0 4.0 0.00 0.00 0.00 91 1013.8
20260509085348 54 159 0.0 6.0 0.00 0.00 0.00 91 1014.0
20260509084907 54 221 1.0 6.0 0.00 0.00 0.00 91 1013.8
20260509084346 54 205 0.0 1.0 0.00 0.00 0.00 91 1014.1
20260509083841 54 205 0.0 1.0 0.00 0.00 0.00 91 1014.2
20260509083341 54 205 0.0 3.0 0.00 0.00 0.00 92 1014.4
20260509082837 54 205 1.0 3.0 0.00 0.00 0.00 92 1014.4
20260509082336 54 216 0.0 2.0 0.00 0.00 0.00 92 1014.3
20260509081854 53 216 0.0 2.0 0.00 0.00 0.00 92 1014.0
20260509081334 53 216 1.0 2.0 0.00 0.00 0.00 92 1014.0
20260509080848 53 216 1.0 2.0 0.00 0.00 0.00 92 1013.9
20260509080333 53 216 0.0 0.0 0.00 0.00 0.00 91 1013.9
20260509075848 53 216 0.0 0.0 0.00 0.00 0.00 91 1014.0